Location: B??dostowo
(52.5785°N, 20.9473°E)
Time: 07:19:02
(UTC+00:00)

Daily predictions for brighter satellites

Satellite Brightness Start Highest point End
(mag) Time Altitude Azimuth Time Altitude Azimuth Time Altitude Azimuth
Cosmos 2218 Rocket 4.4 18:49:30 10° SSW 18:55:39 70° WNW 19:01:48 10° N
Cosmos 1782 4.4 18:52:09 10° NNW 18:55:52 38° W 18:59:36 10° SSW
H-2A R/B 4.4 18:54:40 10° SW 18:58:45 23° W 19:02:45 10° NW
Cosmos 1980 Rocket 2.6 18:53:54 10° NNW 18:59:30 54° NE 19:05:03 10° SE
SPOT 5 4.0 18:57:16 10° ESE 19:00:45 24° ENE 19:04:17 10° N
Cosmos 1805 Rocket 3.6 18:57:24 10° S 19:01:47 65° E 19:06:13 10° NNE
ERBS 2.2 19:00:17 10° WSW 19:03:37 84° SSE 19:06:56 10° ENE
DMSP B5D2-2 4.3 18:58:26 10° NNE 19:03:41 80° WNW 19:08:55 10° SSW
SPOT 1/Viking Rocket 4.0 18:59:53 10° SE 19:04:51 47° ENE 19:09:52 10° N
ATLAS 5 CENTAUR R/B 3.2 19:02:50 10° NW 19:08:11 45° SW 19:14:21 10° SSE
Cosmos 1140 Rocket 4.1 19:06:44 10° SSE 19:11:29 36° ESE 19:16:15 10° NE
SL-4 R/B 3.2 19:08:53 10° S 19:11:39 19° SE 19:14:18 10° E
Genesis I 3.4 19:08:20 10° NW 19:12:12 62° NE 19:15:51 11° SE
Cosmos 1697 Rocket 2.8 19:09:43 10° NNW 19:15:21 78° WSW 19:20:57 10° SSE
Cosmos 2228 Rocket 4.4 19:12:02 10° NNW 19:16:11 40° W 19:20:17 10° SSW
Cosmos 1833 Rocket 2.8 19:13:14 10° S 19:18:39 52° ESE 19:24:07 10° NE
Cosmos 389 Rocket 3.5 19:16:06 10° NNW 19:19:23 44° W 19:22:41 10° S
CENTAUR R/B 4.1 19:17:41 11° SE 19:20:10 13° ESE 19:23:05 10° ENE
Cosmos 1812 3.4 19:17:27 10° NNW 19:21:14 56° W 19:24:59 10° S
Cosmos 1633 Rocket 3.4 19:19:11 10° SSE 19:23:25 46° E 19:27:40 10° NNE
Cosmos 2251 Rocket 4.3 19:20:29 10° SW 19:25:41 58° WNW 19:30:56 10° NNE
Cosmos 1867 4.5 19:21:27 10° S 19:25:58 27° ESE 19:30:31 10° ENE
Cosmos 1707 Rocket 3.7 19:26:21 10° NNW 19:30:44 72° W 19:35:01 10° S
Resurs 01 Rocket 2.6 19:29:26 10° S 19:33:39 45° W 19:37:57 10° NNW
Landsat 7 3.8 19:30:17 10° SSE 19:35:02 89° WSW 19:39:51 10° NNW
FALCON 9 DEB 4.4 19:37:09 10° SSW 19:39:50 21° SE 19:41:54 13° E
Cosmos 192 4.3 19:35:01 10° NNW 19:39:57 77° ENE 19:43:58 16° SSE
Cosmos 1441 Rocket 3.7 19:36:15 10° SSW 19:40:01 60° WNW 19:43:46 10° N
Cosmos 1934 Rocket 4.0 19:34:24 10° S 19:40:43 71° E 19:47:05 10° NNE
Cosmos 614 Rocket 4.1 19:38:52 10° SSW 19:44:02 83° WNW 19:49:18 10° NNE
NOSS 3-2 (A) 4.1 19:40:09 10° S 19:45:05 30° ESE 19:50:36 10° ENE
IGS 5A 3.7 19:41:07 10° S 19:45:13 70° WSW 19:49:23 10° NNW
USA 267 3.2 19:38:56 10° ENE 19:45:27 64° SE 19:51:57 10° SW
Cosmos 1470 Rocket 4.0 19:42:24 13° SSE 19:46:04 45° E 19:50:16 10° NNE
GP-B 3.1 19:44:27 10° N 19:48:56 81° E 19:53:14 11° S
SWAS 4.4 19:47:10 10° SSW 19:51:26 69° ESE 19:55:47 10° NE
Cosmos 1821 Rocket 4.4 19:47:58 10° SSW 19:54:03 64° WNW 20:00:17 10° N
Cosmos 921 Rocket 2.9 19:50:58 10° NNW 19:55:15 74° ENE 19:58:03 20° SSE
COSMOS 2406 3.6 19:50:56 10° SW 19:56:40 69° NW 20:02:25 10° NNE
Cosmos 1862 Rocket 3.7 19:52:46 10° NNW 19:57:16 78° W 20:01:01 14° S
SL-16 R/B 2.7 19:52:43 10° NNW 19:58:16 50° NE 20:02:26 17° ESE
ERS-1 Rocket 3.0 19:56:08 16° SSE 20:00:11 87° ENE 20:05:15 10° NNW
Cosmos 468 Rocket 4.2 19:56:42 10° NNW 20:02:01 64° ENE 20:05:37 20° SE
Lacrosse 5 1.9 19:57:17 10° WNW 20:02:24 81° NNE 20:06:22 17° ESE
SAR-Lupe-2 3.8 20:02:08 10° NNE 20:05:39 49° ESE 20:07:37 23° SSE
Sich 1 4.3 20:02:03 10° SW 20:06:17 43° WNW 20:10:33 10° N
Cosmos 2219 Rocket 4.3 20:04:38 10° NNW 20:08:46 20° NNE 20:12:55 10° ENE
BREEZE-M DEB (TANK) 2.2 20:07:52 10° WSW 20:09:55 34° SSW 20:09:55 34° SSW
Cosmos 2082 Rocket 2.1 20:06:00 10° SSW 20:11:41 76° ESE 20:17:23 10° NNE
NOSS 2 (A) 4.3 20:09:03 10° NW 20:11:44 59° SW 20:12:18 42° S
Cosmos 2278 4.3 20:06:49 10° NW 20:12:20 50° WSW 20:16:44 16° S
Cosmos 1954 Rocket 4.0 20:08:03 10° SSW 20:13:20 69° ESE 20:18:39 10° NNE
Spot 2 Rocket 4.5 20:11:33 10° S 20:16:24 43° W 20:21:17 10° NNW
Meteor 1-4 Rocket 4.2 20:16:34 10° NNW 20:19:35 27° W 20:22:26 11° SSW
Cosmos 2322 Rocket 2.6 20:15:06 10° NNW 20:20:44 58° NE 20:24:25 22° SE
USA 234 3.8 20:18:46 20° SSE 20:23:05 46° SW 20:29:21 10° WNW
CARTOSAT-1 4.0 20:20:05 19° S 20:23:06 58° W 20:27:24 10° NNW
Cosmos 1184 Rocket 3.3 20:21:02 14° SSW 20:23:43 60° WNW 20:27:01 10° N
Terra 1.8 20:21:08 23° SSE 20:24:09 89° W 20:28:57 10° NNW
Cosmos 2100 Rocket 4.5 20:20:53 22° SSE 20:24:24 43° E 20:30:09 10° NNE
Cosmos 1190 Rocket 4.4 20:19:11 10° SW 20:24:27 67° WNW 20:29:46 10° NNE
Cosmos 1933 Rocket 3.5 20:24:16 20° S 20:27:15 79° E 20:31:43 10° NNE
Cosmos 1605 Rocket 4.0 20:21:14 10° S 20:27:23 85° W 20:33:32 10° N
Cosmos 407 Rocket 4.3 20:22:14 10° SW 20:27:28 54° WNW 20:32:39 10° NNE
Okean 1 3.4 20:25:13 10° NNW 20:29:16 74° W 20:31:27 26° S
Meteor 1-20 Rocket 4.3 20:23:27 10° SSW 20:29:16 87° WNW 20:35:11 10° NNE
Cosmos 1238 Rocket 2.2 20:28:02 27° SSW 20:29:31 72° W 20:32:29 10° N
Cosmos 1602 3.7 20:31:37 25° S 20:33:49 86° E 20:37:47 10° NNE
Cosmos 1437 Rocket 2.6 20:30:02 10° NNW 20:33:53 89° NE 20:35:27 34° SSE
ATLAS 3B R/B 4.0 20:34:01 18° ESE 20:34:36 18° ESE 20:38:49 10° ENE
Cosmos 2360 Rocket 2.9 20:29:26 10° NNW 20:34:54 45° NE 20:38:35 20° ESE
Cosmos 1869 Rocket 4.0 20:35:52 31° SE 20:37:27 43° E 20:41:42 10° NNE
SPOT 5 3.3 20:35:54 20° SSW 20:38:37 48° W 20:42:52 10° NNW
Meteor 1-19 Rocket 4.2 20:33:24 10° NNW 20:38:50 75° W 20:42:13 24° S
Cosmos 2173 Rocket 4.2 20:36:35 25° SSE 20:40:01 52° E 20:45:55 10° NNE
ERBS 3.7 20:36:58 10° W 20:40:08 39° N 20:43:16 10° ENE
USA 238 DEB 3.6 20:34:08 10° SSW 20:40:40 63° SE 20:47:31 10° NE
USA 238 3.6 20:34:14 10° SSW 20:40:46 62° SE 20:47:37 10° NE
Cosmos 1980 Rocket 3.4 20:38:15 10° NW 20:43:19 34° WSW 20:47:05 16° SSW
Geosat 4.1 20:40:38 28° SE 20:43:21 74° NE 20:48:24 10° NNW
JB-3 4.4 20:39:28 10° NNE 20:43:25 59° E 20:44:51 36° SSE
Iridium 4 Rocket 3.4 20:41:58 33° SE 20:43:32 49° E 20:47:37 10° NNE
Cosmos 2242 Rocket 4.2 20:40:34 10° NNW 20:44:55 52° W 20:47:29 23° SSW
Cosmos 1703 Rocket 3.7 20:40:35 10° NNW 20:44:56 69° W 20:47:05 29° S
MTI 4.2 20:42:55 10° NNE 20:45:54 41° E 20:45:54 41° E
Cosmos 1763 Rocket 3.6 20:43:04 10° NNW 20:48:24 70° WSW 20:51:08 29° S
SL-4 R/B 1.7 20:47:03 10° WSW 20:50:46 53° SSE 20:51:35 42° ESE
Meteor 1-14 Rocket 4.3 20:46:53 20° S 20:51:00 84° E 20:57:00 10° NNE
Cosmos 1500 3.4 20:50:18 43° SE 20:51:04 51° E 20:54:43 10° NNE
BREEZE-M DEB (TANK) 3.2 20:47:47 10° W 20:51:13 66° S 21:02:38 10° E
Cosmos 405 Rocket 3.0 20:49:22 23° SSW 20:51:31 60° WNW 20:55:14 10° N
ALOS 2 4.0 20:50:20 20° E 20:52:12 27° ENE 20:55:54 10° N
MOS 1-B Rocket 4.2 20:48:24 10° NNE 20:53:55 45° E 20:56:13 30° SSE
Cosmos 2333 Rocket 3.6 20:49:45 10° NNW 20:54:57 33° NE 20:59:21 14° E
Cosmos 2016 Rocket 4.4 20:55:14 28° SSE 20:58:15 49° E 21:04:22 10° NNE
Meteor 1-13 Rocket 4.3 20:52:49 10° N 20:58:22 67° ENE 21:00:56 32° SSE
Cosmos 2237 Rocket 4.5 20:54:47 10° NNW 20:58:44 19° NNE 21:02:41 10° ENE
Cosmos 2061 Rocket 4.3 20:56:26 29° SSE 20:59:18 49° E 21:05:14 10° NNE
Cosmos 1536 4.0 20:58:57 26° E 20:59:19 27° E 21:02:42 10° NNE
Meteor 1-5 Rocket 4.5 20:58:37 30° SSE 21:01:33 60° E 21:07:24 10° NNE
Cosmos 1459 Rocket 4.0 20:58:06 27° S 21:01:41 72° E 21:08:03 10° NNE
Cosmos 1833 Rocket 4.2 20:57:35 10° WSW 21:02:48 38° NW 21:08:03 10° NNE
Cosmos 1666 3.5 21:02:40 32° E 21:02:52 33° E 21:06:15 10° NNE
Okean 1-7 3.7 21:02:23 10° NNW 21:06:34 47° W 21:08:30 28° SSW
Cosmos 2221 Rocket 3.6 21:03:07 10° N 21:07:35 68° ENE 21:09:01 41° SE
Lacrosse 4 Rocket 3.9 21:09:07 10° E 21:09:07 10° E 21:09:09 10° E
CENTAUR R/B 2.6 21:04:46 20° SSW 21:09:07 59° SE 21:16:11 10° NE
Cosmos 1867 3.8 21:03:42 10° SW 21:09:09 72° NW 21:14:39 10° NE
Okean 3 3.4 21:08:24 10° N 21:12:43 89° ESE 21:13:59 45° S
Cosmos 967 Rocket 4.4 21:06:57 10° NW 21:13:24 87° SW 21:16:35 32° SE
Cosmos 1733 Rocket 3.8 21:13:55 33° ESE 21:14:37 35° E 21:18:40 10° NNE
Thor Agena Rocket 3.9 21:10:07 10° NNE 21:15:00 45° E 21:16:25 36° SE
Meteor 2-4 Rocket 4.0 21:10:28 10° NNW 21:16:08 62° W 21:18:54 29° SSW
FALCON 9 DEB 3.8 21:12:57 10° WSW 21:15:22 40° SW 21:15:22 40° SW
Cosmos 1802 Rocket 4.0 21:13:52 30° S 21:17:16 76° E 21:23:38 10° NNE
Cosmos 1850 Rocket 4.0 21:14:18 23° SSW 21:17:39 89° WNW 21:22:58 10° NNE
SL-27 R/B 2.1 21:19:37 76° ESE 21:19:38 76° ESE 21:22:58 10° NNE
Cosmos 44 3.3 21:16:40 10° NW 21:21:30 69° SW 21:23:09 42° SSE
ATLAS 5 CENTAUR R/B 2.0 21:19:12 10° WNW 21:21:53 63° SW 21:23:25 39° SSE
Cosmos 2346 Rocket 4.4 21:18:02 10° N 21:24:08 88° WSW 21:26:55 35° S
USA 267 3.5 21:22:04 10° ENE 21:28:36 71° NNW 21:35:06 10° W
Spot 4 3.8 21:27:26 43° S 21:29:03 85° WSW 21:33:54 10° NNW
Cosmos 2233 Rocket 4.4 21:29:56 33° SE 21:32:22 48° E 21:38:25 10° NNE
BREEZE-M DEB (TANK) 4.5 21:19:44 10° W 21:33:11 52° SSW 21:35:19 33° SE
NOSS 3-2 (A) 3.6 21:29:25 10° SW 21:35:19 75° NW 21:42:13 10° NE
Cosmos 1378 3.7 21:33:52 10° N 21:37:30 44° ENE 21:37:53 43° E
Cosmos 1816 Rocket 4.5 21:32:53 10° NNW 21:39:13 85° W 21:41:57 36° S
Cosmos 841 Rocket 4.0 21:35:16 10° NW 21:40:18 49° WSW 21:42:00 35° SSW
NOSS 3-2 (C) 3.4 21:35:51 13° SW 21:41:07 87° SE 21:47:57 10° NE
Cosmos 540 Rocket 3.9 21:36:45 10° NW 21:41:45 49° WSW 21:43:22 36° SSW
SL-16 R/B 3.1 21:37:04 10° NW 21:42:16 38° WSW 21:44:17 28° SSW
Lacrosse 5 2.6 21:40:30 10° WNW 21:45:04 34° SW 21:45:31 33° SW
Cosmos 2322 3.8 21:39:29 10° NNW 21:45:11 72° NE 21:47:37 35° SE
Cosmos 1378 Rocket 3.6 21:46:22 10° N 21:50:51 69° ENE 21:51:46 52° SE
Tsikada Rocket 4.0 21:45:49 10° NNW 21:52:13 78° W 21:54:55 37° S
Cosmos 2219 Rocket 2.5 21:48:16 10° NNW 21:53:55 62° NE 21:56:38 31° ESE
Cosmos 2082 Rocket 4.1 21:51:25 10° W 21:56:21 29° NW 22:01:17 10° NNE
COSMOS 2487 3.4 21:58:46 35° ENE 21:58:46 35° ENE 22:01:18 10° NE
GENESIS II 4.5 21:54:53 10° NW 21:58:54 65° NE 21:59:43 50° E
Cosmos 2333 4.2 21:53:46 10° NNW 21:59:36 87° ENE 22:01:49 40° SSE
Cosmos 2084 Rocket 3.3 21:59:01 61° SSW 21:59:41 78° SE 22:04:02 10° NE
Terra 4.2 22:00:02 10° WSW 22:02:36 14° W 22:05:11 10° NW
Cosmos 1975 Rocket 4.1 21:59:52 10° N 22:04:04 36° ENE 22:05:17 31° ESE
Cosmos 2322 Rocket 3.3 21:59:33 10° NW 22:04:32 32° WSW 22:06:13 27° SW
EO 1 Del DPAF 3.1 22:00:47 10° NNE 22:04:33 76° WNW 22:04:57 67° SW
GRACE-FO 1 4.5 22:04:32 10° N 22:08:11 78° W 22:08:16 77° WSW
GRACE-FO 2 4.5 22:04:54 10° N 22:08:34 77° W 22:08:39 76° WSW
SL-16 R/B 4.5 22:04:43 10° NNW 22:09:03 22° NNE 22:13:23 10° E
Meteor 1-11 Rocket 4.0 22:09:09 32° SW 22:11:44 64° WNW 22:17:29 10° N
Cosmos 1242 Rocket 3.1 22:08:39 10° NNW 22:12:07 47° W 22:12:07 47° W
Cosmos 1486 Rocket 4.3 22:11:53 45° SE 22:12:51 51° ESE 22:17:54 10° NNE
Helios 1A 3.2 22:13:11 52° ESE 22:13:57 63° ENE 22:18:09 10° N
ERBS 3.3 22:13:39 10° WNW 22:16:51 44° NNE 22:18:11 28° ENE
Cosmos 2360 Rocket 2.8 22:13:36 10° NW 22:18:56 42° WSW 22:20:19 36° SW
Cosmos 1544 3.8 22:20:20 43° E 22:20:20 43° E 22:23:38 10° NNE
COSMOS 2428 2.7 22:14:33 10° NNW 22:20:20 81° ENE 22:22:36 39° SE
ATLAS 3B R/B 2.5 22:21:13 35° SSW 22:24:10 72° SE 22:30:49 10° NE
Cosmos 489 Rocket 4.4 22:18:11 10° NNW 22:24:33 83° WSW 22:26:57 41° SSE
Okean 2 3.4 22:20:28 10° N 22:24:34 69° ENE 22:25:03 62° ESE
ALOS 2 3.1 22:27:44 41° WSW 22:28:21 44° W 22:32:35 10° NNW
Nimbus 7 Rocket 4.4 22:23:56 10° NNE 22:29:50 80° WNW 22:32:15 38° SSW
SL-4 R/B 4.0 22:26:33 10° W 22:27:13 15° W 22:27:13 15° W
Cosmos 1674 Rocket 4.3 22:28:34 10° NNW 22:32:36 39° W 22:33:13 37° WSW
Cosmos 1980 4.4 22:28:56 10° NNW 22:34:30 52° NE 22:38:04 22° ESE
Cosmos 2297 Rocket 4.1 22:34:19 14° ESE 22:35:36 15° E 22:38:44 10° ENE
Cosmos 1536 4.1 22:34:39 29° W 22:35:38 33° WNW 22:39:18 10° N
Cosmos 1666 4.4 22:37:32 22° W 22:38:31 25° WNW 22:41:39 10° NNW
Cosmos 1743 2.7 22:38:17 67° WSW 22:38:33 70° WNW 22:42:27 10° N
Cosmos 2333 Rocket 2.3 22:33:57 10° NW 22:39:41 66° WSW 22:41:19 46° S
Cosmos 1271 Rocket 3.2 22:37:12 10° NNW 22:40:47 46° W 22:40:47 46° W
NOSS 0 Rocket 4.0 22:37:44 10° NNW 22:44:01 79° NE 22:47:14 31° SE
Cosmos 2237 Rocket 2.7 22:38:30 10° NNW 22:44:06 56° NE 22:47:32 23° ESE
Lacrosse 4 Rocket 1.3 22:45:23 71° SSE 22:45:42 75° ESE 22:49:53 10° NE
Cosmos 773 Rocket 4.3 22:41:07 10° NNW 22:46:14 60° ENE 22:48:25 33° SE
Cosmos 1025 Rocket 4.1 22:43:04 10° N 22:47:04 37° ENE 22:48:18 30° ESE
Cosmos 1733 Rocket 4.5 22:50:59 24° WSW 22:52:28 30° WNW 22:56:24 10° N
Cosmos 44 Rocket 3.3 22:51:29 10° NW 22:56:27 70° SW 22:57:31 53° S
CENTAUR R/B 3.5 22:53:44 10° WSW 23:00:01 52° NNW 23:07:29 10° NE
Cosmos 968 Rocket 3.4 22:59:01 47° SSW 23:00:30 83° WNW 23:05:40 10° NNE
Cosmos 1975 2.7 23:02:22 72° SW 23:02:43 80° WNW 23:06:47 10° N
Resurs 1-4 Rocket 4.0 23:02:13 10° NE 23:05:58 19° E 23:08:21 15° ESE
Cosmos 1536 Rocket 4.3 23:02:29 10° N 23:06:41 45° ENE 23:07:59 34° ESE
Cosmos 1354 Rocket 4.0 23:07:09 48° S 23:08:36 73° ESE 23:13:57 10° NNE
Cosmos 1782 Rocket 3.5 23:10:37 59° SW 23:11:19 74° WNW 23:15:41 10° N
USA 267 3.7 23:04:53 10° E 23:11:19 62° N 23:17:46 10° WNW
Cosmos 1707 2.6 23:11:54 10° N 23:15:51 81° E 23:16:13 71° SE
Cosmos 1842 4.0 23:13:57 10° NNW 23:17:39 38° W 23:17:41 38° W
Cosmos 1464 Rocket 4.0 23:15:36 40° SSW 23:18:04 81° W 23:24:19 10° N
Cosmos 1908 Rocket 4.5 23:18:33 33° WSW 23:19:37 38° WNW 23:23:44 10° N
Cosmos 2344 4.3 23:12:00 10° NW 23:21:05 87° SW 23:33:47 10° SE
Helios 1B rocket 2.4 23:17:10 10° NNE 23:21:16 65° ESE 23:21:48 58° SE
CZ-4 R/B 3.9 23:16:34 10° NNE 23:21:34 84° ESE 23:23:00 48° S
Cosmos 2227 Rocket 3.4 23:22:42 24° SE 23:24:31 29° ESE 23:29:20 10° NE
Cosmos 1674 3.9 23:24:08 10° N 23:27:37 36° ENE 23:28:43 29° ESE
Cosmos 1607 4.4 23:21:17 10° NW 23:27:42 66° NE 23:34:08 10° ESE
Meteor 1-12 Rocket 4.5 23:28:42 38° S 23:31:05 70° E 23:37:05 10° NNE
COSMOS 2487 4.5 23:32:14 18° WNW 23:33:15 20° NW 23:35:55 10° N
Nadezhda 4 Rocket 4.1 23:29:20 10° NNW 23:35:36 65° W 23:38:03 37° SSW
Cosmos 1777 Rocket 4.4 23:35:45 38° SSE 23:37:23 53° ESE 23:42:33 10° NNE
Cosmos 2219 Rocket 3.2 23:32:42 10° NW 23:37:33 29° WSW 23:38:19 28° WSW
Meteor 1-29 3.0 23:37:38 10° NNE 23:41:05 66° ESE 23:41:13 65° ESE
MOZ.5/SAFIR/RUBIN 5/SL-8 3.9 23:39:37 35° SSE 23:41:36 72° ENE 23:46:22 10° NNW
Cosmos 1975 Rocket 4.2 23:37:54 10° NNW 23:41:51 30° W 23:42:25 29° WSW
Cosmos 1437 3.4 23:42:16 10° NNW 23:44:31 42° NW 23:44:31 42° NW
Okean 2 Rocket 3.0 23:45:22 52° SSW 23:46:26 81° W 23:50:59 10° N
Cosmos 2034 Rocket 4.1 23:43:53 36° SSW 23:46:36 71° WNW 23:52:57 10° N
Cosmos 1503 Rocket 4.5 23:45:55 32° WSW 23:48:15 55° WNW 23:53:34 10° NNE
Landsat 4 4.5 23:44:56 10° N 23:48:32 41° WNW 23:49:12 37° W
ADEOS II 4.2 23:46:02 10° NE 23:49:43 19° E 23:53:22 10° SE
Cosmos 1092 Rocket 3.9 23:43:36 10° NNW 23:49:53 78° W 23:52:45 34° S
SL-16 R/B 2.7 23:46:15 22° SSE 23:50:30 75° ENE 23:56:47 10° NNW
GEOS 3 Rocket 4.1 23:46:16 10° NE 23:51:31 49° SE 23:53:17 36° S
CZ-2D R/B 3.0 23:46:58 10° NNE 23:52:11 42° E 23:54:55 25° SSE
ERBS 4.3 23:49:58 10° WNW 23:51:02 19° WNW 23:51:02 19° WNW
Cosmos 1300 Rocket 3.5 23:52:28 51° SW 23:53:27 73° WNW 23:57:47 10° N
Iridium 51 4.3 23:49:14 10° N 23:53:38 84° W 23:54:30 55° S
Cosmos 923 Rocket 4.3 23:48:43 10° NNW 23:54:04 66° ENE 23:58:10 17° SE
SL-16 R/B 2.5 23:48:32 10° NNW 23:54:15 69° NE 23:59:42 11° SE
